Regional Weather Roundup
Issued by NWS

Home | Current Version | Previous Version | Graphics & Text | Print | Product List | Glossary On
Versions: 1 2 3 4 5 6 7 8 9 10 11 12 13 14 15 16 17 18 19 20 21 22 23 24 25 26 27 28 29 30 31 32 33 34 35 36 37 38 39 40 41 42 43 44 45 46 47 48 49 50
000
ASUS43 KMKX 030400
RWRWI

WISCONSIN REGIONAL WEATHER ROUNDUP
NATIONAL WEATHER SERVICE MILWAUKEE/SULLIVAN WI
1100 PM CDT MON MAY 02 2016

NOTE: "FAIR" INDICATES FEW OR NO CLOUDS BELOW 12,000 FEET WITH NO
SIGNIFICANT WEATHER AND/OR OBSTRUCTIONS TO VISIBILITY.

WIZ001-002-006>008-014>016-023>028-030500-
NORTHWEST WISCONSIN

CITY           SKY/WX    TMP DP  RH WIND       PRES   REMARKS
SUPERIOR ARPT  CLEAR     35  33  95 CALM      29.98F
ASHLAND        CLEAR     39  38  96 W3        29.97F
HAYWARD        CLEAR     42  35  76 CALM      29.98F
SIREN          CLEAR     47  34  60 CALM      29.99S
CUMBERLAND     CLEAR     50  36  57 W5        29.99S
RICE LAKE      CLEAR     49  38  65 CALM      30.01S
CHETEK         CLEAR     47  36  66 CALM      30.00S
LADYSMITH      CLEAR     45  38  78 CALM      30.01R
EAU CLAIRE     NOT AVBL
MENOMONIE      CLEAR     49  34  56 W5        30.00S
NEW RICHMOND   CLEAR     49  41  74 S3        30.00S
OSCEOLA        CLEAR     47  40  75 CALM      30.02S
$$

WIZ003>005-009-010-017-018-030500-
NORTH CENTRAL WISCONSIN

CITY           SKY/WX    TMP DP  RH WIND       PRES   REMARKS
MANITOWISH WTR CLEAR     38  35  87 CALM      29.99S
ARBOR VITAE    CLEAR     44  34  68 CALM      29.99F
WOODRUFF       CLEAR     44  34  68 CALM      29.99F
RHINELANDER    CLEAR     43  31  62 CALM      29.99S
EAGLE RIVER    CLEAR     39  31  73 CALM      29.98F
LAND O LAKES   CLEAR     37  33  83 CALM      29.99F
PHILLIPS       CLEAR     44  35  69 CALM      29.99S
TOMAHAWK       MOCLDY    38  34  84 CALM      30.00S
MEDFORD        CLEAR     45  37  76 CALM      29.99S
MERRILL        CLEAR     42  37  80 CALM      30.00S
$$

WIZ029-030-035-036-043>047-030500-
CENTRAL WISCONSIN

CITY           SKY/WX    TMP DP  RH WIND       PRES   REMARKS
WAUSAU         CLEAR     50  36  58 CALM      29.97F
MOSINEE        CLEAR     52  32  46 W6        30.00F
MARSHFIELD     CLEAR     50  35  56 CALM      29.98F
STEVENS POINT  CLOUDY    46  34  63 CALM      29.99F
WAUPACA        PTCLDY    51  36  55 CALM      29.99F
WAUTOMA        CLEAR     46  37  71 CALM      30.00F
WISC RAPIDS    PTCLDY    46  34  62 CALM      30.00F
CAMP DOUGLAS   NOT AVBL
$$

WIZ011>013-019>022-031-037>040-048>050-030500-
NORTHEAST WISCONSIN

CITY           SKY/WX    TMP DP  RH WIND       PRES   REMARKS
ANTIGO         CLEAR     46  38  76 CALM      29.99S
SHAWANO        CLEAR     54  36  51 CALM      29.99S
OCONTO         CLEAR     43  38  82 CALM      29.99S
STURGEON BAY   CLEAR     46  30  53 S3        30.01F
GREEN BAY      CLEAR     48  38  68 CALM      29.99F
MANITOWOC      NOT AVBL
APPLETON       PTCLDY    48  34  57 SW6       29.99S
CLINTONVILLE   CLEAR     50  34  53 S5        29.99F
OSHKOSH        CLEAR     49  35  58 SW7       29.99F
$$

WIZ032>034-041-042-053>061-030500-
SOUTHWEST WISCONSIN

CITY           SKY/WX    TMP DP  RH WIND       PRES   REMARKS
LA CROSSE      CLOUDY    54  43  66 S6        30.00F
SPARTA         CLOUDY    48  40  72 CALM      30.02F
VIROQUA        CLOUDY    54  35  49 CALM      30.02F
BOSCOBEL       MOCLDY    46  41  82 CALM      30.02F
PRAIRIE DU CHI CLEAR     47  42  81 CALM      30.03S
PLATTEVILLE    CLEAR     51  37  58 W5        30.02S
$$

WIZ056-057-062-063-064-067-068-030500-
SOUTH CENTRAL WISCONSIN

CITY           SKY/WX    TMP DP  RH WIND       PRES   REMARKS
REEDSBURG      MOCLDY    49  37  62 CALM      30.00F
BARABOO/DELLS  MOCLDY    51  36  56 S6        30.00F
LONE ROCK      NOT AVBL
MINERAL POINT  PTCLDY    54  34  47 W3        30.02S
MADISON        CLEAR     44  36  73 CALM      30.01S
MIDDLETON      CLEAR     44  40  86 CALM      30.02S
WATERTOWN      CLEAR     46  36  66 CALM      30.01F
MONROE         CLEAR     52  34  50 SW3       30.01F
JANESVILLE     CLEAR     48  36  61 CALM      30.01
$$

WIZ051-052-058>065-066-070>072-030500-
SOUTHEAST WISCONSIN

CITY           SKY/WX    TMP DP  RH WIND       PRES   REMARKS
MILWAUKEE      PTCLDY    44  34  67 CALM      30.01F
WAUKESHA       CLEAR     39  32  75 CALM      30.02F
MILWAUKEE/TIMM CLEAR     45  32  61 CALM      30.02F
RACINE         CLEAR     41  33  73 CALM      30.03S
BURLINGTON     CLEAR     40  34  79 CALM      30.02S
KENOSHA        CLEAR     42  34  73 CALM      30.01F
FOND DU LAC    CLEAR     47  36  65 S3        30.00F
SHEBOYGAN      CLEAR     43  35  73 W3        30.00F
WEST BEND      CLEAR     45  32  61 CALM      30.01F
JUNEAU         CLEAR     47  36  63 SE5       30.02F
$$

LSZ147-162-030500-
LAKE SUPERIOR

STATION/POSITION TIME  TEMP    WIND        PRES    WAVE
                       AIR SEA DIR/SP/G            HT/PER
                 (UTC) (F)     (DEG/KT/KT) (MB)    (FT/S)
W MID LAKE BUOY  0250   39 37  220/  4/  4 1015.7F   0
DEVILS ISLAND    0300   49     140/ 10/ 11 1015.0F
SAXON HARBOR     0300   44     190/  5/  6 1014.6F
$$

LMZ867-665-643>646-030500-
LAKE MICHIGAN

STATION/POSITION TIME  TEMP    WIND        PRES    WAVE
                       AIR SEA DIR/SP/G            HT/PER
                 (UTC) (F)     (DEG/KT/KT) (MB)    (FT/S)
CHAMBERS ISLAND  0300   43        CALM     1015.9S
N MID LAKE BUOY  0250   43 38  260/  6/  6 1015.9F   0
NORTHPORT PIER   0300   45      CALM  /  1 1015.6F
ALGOMA LAKESHORE 0315             CALM       N/A
KEWAUNEE LAKESHO 0300   45     300/  2/  3 1015.3F
SHEBOYGAN LAKESH 0300   51     220/  4/  4 1016.9S
PORT WASHINGTON  0300   48     270/  2/  3 1017.3
S MID LAKE BUOY  0250   43 41  350/  4/  6 1016.4R   1
KENOSHA   LAKESH 0300   49     330/  2/  2 1016.6F
$$

TC  - TEMPERATURE IN CELSIUS
VSB - VISIBILITY IN STATUTE MILES
WCI - WIND CHILL INDEX
HX  - HEAT INDEX




USA.gov is the U.S. government's official web portal to all federal, state and local government web resources and services.